Weather History for KAHQ - May, 2013

Change the Weather History Date:

Friday, May 3, 2013

  Actual Average Record
Temperature  
Mean Temperature 41 °F -  
Max Temperature 51 °F 70 °F 87 °F (1987)
Min Temperature 31 °F 42 °F 23 °F (1976)
Degree Days  
Heating Degree Days 24    
Moisture  
Dew Point 30 °F    
Average Humidity 66    
Maximum Humidity 87    
Minimum Humidity 43    
Precipitation  
Precipitation 0.00 in - - ()
Sea Level Pressure  
Sea Level Pressure 30.21 in    
Wind  
Wind Speed 12 mph (North)    
Max Wind Speed 23 mph    
Max Gust Speed 33 mph    
Visibility 10 miles    
Events      
Averages and records for this station are not official NWS values.
T = Trace of Precipitation, MM = Missing Value Source: NWS Daily Summary

Daily Weather History Graph

Daily Weather History Graph

Search for Another Location

Airport or City:

Trip Planner

Search our weather history database for the weather conditions in past years. The results will help you decide how hot, cold, wet, or windy it might be!

Date:

Astronomy

May. 03, 2013 Rise Set
Actual Time 6:21 AM CDT 8:26 PM CDT
Civil Twilight 5:50 AM CDT 8:56 PM CDT
Nautical Twilight 5:13 AM CDT 9:33 PM CDT
Astronomical Twilight 4:33 AM CDT 10:14 PM CDT
Moon 2:50 AM CDT (5/3) 2:18 PM CDT (5/3)
Length of Visible Light 15h 05m
Length of Day
14h 05m
Last Quarter, 37% of the Moon is Illuminated
May 3
Last Quarter
May 9
New
May 17
First Quarter
May 24
Full
May 31
Last Quarter

Hourly Weather History & Observations

Time (CDT) Temp. Windchill Dew Point Humidity Pressure Visibility Wind Dir Wind Speed Gust Speed Precip Events Conditions
12:15 AM 35.4 °F 29.7 °F 28.8 °F 77% 30.40 in 10.0 mi NNW 6.9 mph - N/A   Clear
12:35 AM 35.8 °F 30.1 °F 28.4 °F 75% 30.39 in 10.0 mi NNW 6.9 mph - N/A   Clear
12:55 AM 35.6 °F 29.2 °F 28.8 °F 76% 30.39 in 10.0 mi NNW 8.1 mph - N/A   Clear
1:15 AM 34.3 °F 27.7 °F 28.8 °F 80% 30.38 in 10.0 mi NNW 8.1 mph - N/A   Clear
1:35 AM 34.7 °F 28.1 °F 28.4 °F 78% 30.37 in 10.0 mi NNW 8.1 mph - N/A   Clear
1:55 AM 33.3 °F 26.4 °F 28.4 °F 82% 30.37 in 10.0 mi NNW 8.1 mph - N/A   Clear
2:15 AM 33.8 °F 27.0 °F 28.4 °F 81% 30.36 in 10.0 mi NNW 8.1 mph - N/A   Clear
2:35 AM 33.8 °F 27.0 °F 28.4 °F 81% 30.35 in 10.0 mi NNW 8.1 mph - N/A   Clear
2:55 AM 33.3 °F 25.7 °F 28.4 °F 82% 30.35 in 10.0 mi NNW 9.2 mph - N/A   Clear
3:15 AM 32.9 °F 25.3 °F 28.8 °F 85% 30.34 in 10.0 mi NNW 9.2 mph - N/A   Clear
3:35 AM 32.2 °F 25.0 °F 28.4 °F 86% 30.34 in 10.0 mi NNW 8.1 mph - N/A   Clear
3:55 AM 32.0 °F 24.8 °F 28.2 °F 86% 30.33 in 10.0 mi NNW 8.1 mph - N/A   Clear
4:15 AM 32.0 °F 24.2 °F 28.0 °F 85% 30.33 in 10.0 mi NNW 9.2 mph - N/A   Clear
4:35 AM 32.0 °F 24.2 °F 27.9 °F 85% 30.32 in 10.0 mi NNW 9.2 mph - N/A   Clear
4:55 AM 32.0 °F 24.2 °F 28.0 °F 85% 30.33 in 10.0 mi NNW 9.2 mph - N/A   Clear
5:15 AM 32.0 °F 24.2 °F 28.0 °F 85% 30.33 in 10.0 mi NNW 9.2 mph - N/A   Clear
5:35 AM 31.8 °F 24.6 °F 27.9 °F 85% 30.32 in 10.0 mi NNW 8.1 mph - N/A   Clear
5:55 AM 31.5 °F 23.5 °F 27.5 °F 85% 30.32 in 10.0 mi NNW 9.2 mph - N/A   Clear
6:15 AM 31.1 °F 23.1 °F 27.5 °F 87% 30.32 in 10.0 mi NNW 9.2 mph - N/A   Clear
6:35 AM 31.3 °F 22.7 °F 27.3 °F 85% 30.31 in 10.0 mi NNW 10.4 mph - N/A   Clear
6:55 AM 31.5 °F 21.8 °F 27.5 °F 85% 30.31 in 10.0 mi NW 12.7 mph 17.3 mph N/A   Clear
7:15 AM 32.0 °F 23.0 °F 27.9 °F 85% 30.31 in 10.0 mi NNW 11.5 mph - N/A   Clear
7:35 AM 32.4 °F 23.0 °F 28.4 °F 85% 30.31 in 10.0 mi NNW 12.7 mph - N/A   Clear
7:55 AM 33.1 °F 23.4 °F 28.8 °F 84% 30.31 in 10.0 mi NNW 13.8 mph - N/A   Clear
8:15 AM 32.9 °F 22.4 °F 28.4 °F 84% 30.30 in 10.0 mi NNW 16.1 mph - N/A   Clear
8:35 AM 34.0 °F 24.2 °F 29.5 °F 84% 30.30 in 10.0 mi NNW 15.0 mph - N/A   Clear
8:55 AM 35.4 °F 26.4 °F 30.4 °F 82% 30.30 in 10.0 mi NNW 13.8 mph - N/A   Clear
9:15 AM 36.0 °F 26.3 °F 30.2 °F 80% 30.29 in 10.0 mi NNW 16.1 mph - N/A   Clear
9:35 AM 37.4 °F 28.2 °F 30.4 °F 76% 30.29 in 10.0 mi North 16.1 mph - N/A   Clear
9:55 AM 39.0 °F 29.6 °F 30.6 °F 72% 30.27 in 10.0 mi North 18.4 mph - N/A   Clear
10:15 AM 40.1 °F 30.7 °F 30.9 °F 70% 30.26 in 10.0 mi North 19.6 mph 26.5 mph N/A   Scattered Clouds
10:35 AM 40.8 °F 30.9 °F 30.9 °F 68% 30.24 in 10.0 mi North 23.0 mph 29.9 mph N/A   Scattered Clouds
10:55 AM 42.1 °F 33.1 °F 31.1 °F 65% 30.23 in 10.0 mi North 20.7 mph 26.5 mph N/A   Clear
11:15 AM 42.3 °F 33.1 °F 29.8 °F 61% 30.22 in 10.0 mi North 21.9 mph 29.9 mph N/A   Clear
11:35 AM 43.3 °F 34.7 °F 30.2 °F 60% 30.22 in 10.0 mi North 20.7 mph 28.8 mph N/A   Clear
11:55 AM 44.2 °F 35.7 °F 31.3 °F 60% 30.21 in 10.0 mi North 21.9 mph 29.9 mph N/A   Clear
12:15 PM 44.8 °F 36.6 °F 30.4 °F 57% 30.21 in 10.0 mi North 20.7 mph 29.9 mph N/A   Clear
12:35 PM 45.7 °F 37.6 °F 31.1 °F 57% 30.19 in 10.0 mi North 21.9 mph 29.9 mph N/A   Clear
12:55 PM 47.5 °F - 31.8 °F 55% 30.18 in 10.0 mi North 23.0 mph 27.6 mph N/A   Clear
1:15 PM 47.5 °F - 31.6 °F 54% 30.17 in 10.0 mi North 18.4 mph 25.3 mph N/A   Clear
1:35 PM 48.2 °F - 31.3 °F 52% 30.16 in 10.0 mi North 20.7 mph 31.1 mph N/A   Clear
1:55 PM 48.9 °F - 30.6 °F 49% 30.15 in 10.0 mi North 18.4 mph 26.5 mph N/A   Scattered Clouds
2:15 PM 49.8 °F - 31.3 °F 49% 30.14 in 10.0 mi North 18.4 mph 27.6 mph N/A   Scattered Clouds
2:35 PM 50.4 °F - 30.4 °F 46% 30.14 in 10.0 mi North 18.4 mph 26.5 mph N/A   Scattered Clouds
2:55 PM 50.4 °F - 30.2 °F 46% 30.13 in 10.0 mi North 20.7 mph 27.6 mph N/A   Scattered Clouds
3:15 PM 51.4 °F - 30.4 °F 44% 30.12 in 10.0 mi North 19.6 mph 26.5 mph N/A   Scattered Clouds
3:35 PM 50.5 °F - 30.0 °F 45% 30.11 in 10.0 mi North 21.9 mph 33.4 mph N/A   Clear
3:55 PM 51.1 °F - 29.3 °F 43% 30.11 in 10.0 mi North 18.4 mph 26.5 mph N/A   Scattered Clouds
4:15 PM 50.0 °F - 29.1 °F 45% 30.09 in 10.0 mi NNE 20.7 mph 29.9 mph N/A   Clear
4:35 PM 51.1 °F - 30.2 °F 45% 30.09 in 10.0 mi North 19.6 mph 26.5 mph N/A   Clear
4:55 PM 50.5 °F - 28.6 °F 43% 30.08 in 10.0 mi North 18.4 mph - N/A   Clear
5:15 PM 50.2 °F - 28.9 °F 44% 30.09 in 10.0 mi North 17.3 mph 31.1 mph N/A   Scattered Clouds
5:35 PM 50.0 °F - 28.8 °F 44% 30.08 in 10.0 mi North 21.9 mph 25.3 mph N/A   Overcast
5:55 PM 49.1 °F - 28.2 °F 44% 30.07 in 10.0 mi North 18.4 mph 25.3 mph N/A   Mostly Cloudy
6:15 PM 49.1 °F - 28.9 °F 46% 30.08 in 10.0 mi NNE 17.3 mph 24.2 mph N/A   Overcast
6:35 PM 48.7 °F - 29.1 °F 47% 30.08 in 10.0 mi North 16.1 mph 23.0 mph N/A   Overcast
6:55 PM 49.1 °F - 30.9 °F 50% 30.07 in 10.0 mi North 15.0 mph 20.7 mph N/A   Overcast
7:15 PM 49.3 °F - 30.7 °F 49% 30.06 in 10.0 mi NNE 15.0 mph 21.9 mph N/A   Mostly Cloudy
7:35 PM 47.1 °F - 32.0 °F 56% 30.06 in 10.0 mi NNE 13.8 mph 20.7 mph N/A   Mostly Cloudy
7:55 PM 46.6 °F - 31.3 °F 55% 30.07 in 10.0 mi NNE 13.8 mph 18.4 mph N/A   Scattered Clouds
8:15 PM 45.5 °F 39.9 °F 31.1 °F 57% 30.07 in 10.0 mi North 11.5 mph - N/A   Clear
8:35 PM 44.6 °F 38.8 °F 30.9 °F 59% 30.07 in 10.0 mi North 11.5 mph - N/A   Mostly Cloudy
8:55 PM 44.4 °F 38.6 °F 30.2 °F 57% 30.07 in 10.0 mi North 11.5 mph - N/A   Overcast
9:15 PM 44.1 °F 37.4 °F 32.0 °F 63% 30.06 in 10.0 mi NNE 13.8 mph - N/A   Overcast
9:35 PM 43.7 °F 37.7 °F 32.0 °F 63% 30.07 in 10.0 mi NNE 11.5 mph - N/A   Overcast
9:55 PM 43.2 °F 37.0 °F 32.0 °F 65% 30.06 in 10.0 mi NNE 11.5 mph - N/A   Overcast
10:15 PM 43.0 °F 35.1 °F 31.1 °F 63% 30.05 in 10.0 mi NNE 17.3 mph - N/A   Overcast
10:35 PM 42.4 °F 35.0 °F 30.0 °F 61% 30.06 in 10.0 mi NNE 15.0 mph 19.6 mph N/A   Overcast
10:55 PM 42.1 °F 34.5 °F 29.3 °F 61% 30.07 in 10.0 mi NNE 15.0 mph - N/A   Overcast
11:15 PM 42.1 °F 33.6 °F 30.2 °F 63% 30.06 in 10.0 mi North 18.4 mph 26.5 mph N/A   Overcast
11:35 PM 41.5 °F 33.2 °F 31.5 °F 67% 30.05 in 10.0 mi North 17.3 mph 24.2 mph N/A   Overcast
11:55 PM 41.4 °F 32.1 °F 31.6 °F 68% 30.04 in 10.0 mi NNE 20.7 mph 27.6 mph N/A   Overcast